Location: Newark
(37.7892°N, 97.1083°W)
Time: 02:48:52
(UTC+00:00)

ISS - Visible Passes

Search period start: 15 December 2019 00:00
Search period end: 25 December 2019 00:00
Orbit: 411 x 421 km, 51.6° (Epoch: 15 December)

Date Brightness Start Highest point End Pass type
(mag) Time Alt. Az. Time Alt. Az. Time Alt. Az.
19 Dec -1.1 13:04:05 10° S 13:06:52 25° SE 13:09:39 10° ENE visible
20 Dec -0.5 12:16:42 10° SSE 12:18:30 14° SE 12:20:19 10° E visible
21 Dec -3.7 13:03:03 10° SW 13:06:21 84° SE 13:09:41 10° NE visible
22 Dec -2.6 12:14:42 10° SSW 12:17:51 43° SE 12:21:02 10° ENE visible
23 Dec -1.6 11:28:51 22° SSE 11:29:25 23° SE 11:32:06 10° ENE visible
23 Dec -3.0 13:02:57 10° W 13:06:01 33° NNW 13:09:05 10° NE visible
24 Dec -3.8 12:16:27 39° W 12:17:22 58° NW 12:20:40 10° NE visible
